Regional Weather Roundup
Issued by NWS Kansas City/Pleasant Hill, MO

Home | Current Version | Previous Version | Graphics & Text | Print | Product List | Glossary Off
Versions: 1 2 3 4 5 6 7 8 9 10 11 12 13 14 15 16 17 18 19 20 21 22 23 24 25 26 27 28 29 30 31 32 33 34 35 36 37 38 39 40 41 42 43 44 45 46 47 48 49 50

485
ASUS43 KEAX 230310
RWREAX

WEATHER ROUNDUP FOR EASTERN KANSAS AND NORTHWEST MISSOURI
NATIONAL WEATHER SERVICE KANSAS CITY/PLEASANT HILL MO
1000 PM CDT MON MAY 22 2017

KSZ040-057-103>105-MOZ028-029-037-043-230400-
...KANSAS CITY METROPOLITAN AREA...

CITY           SKY/WX    TMP DP  RH WIND       PRES   REMARKS
K.C. INTL      CLOUDY    58  57  97 CALM      29.93R
K.C. DOWNTOWN  CLOUDY    59  58  96 E5        29.92R
LEES SUMMIT    LGT RAIN  57  57 100 CALM      29.96R
OLATHE - IXD   CLOUDY    59  56  89 E6        29.93S
OLATHE - OJC   LGT RAIN  57  57 100 SE6       29.93R
LAWRENCE       CLOUDY    59  59 100 CALM      29.94R

$$

MOZ001>008-011>017-020>025-030>033-038>040-044>046-053-054-230400-
...NORTHERN AND CENTRAL MISSOURI...

CITY           SKY/WX    TMP DP  RH WIND       PRES   REMARKS
ST. JOSEPH     PTCLDY    57  57 100 S8        29.91F
MOSBY          DRIZZLE   57  55  94 S3        29.92F
WARRENSBURG    RAIN      55  54  94 N5        29.94R
WHITEMAN AFB   CLOUDY    58  58 100 E5        29.91F
CLINTON        CLOUDY    59  55  88 NE8       29.93S
SEDALIA        MOCLDY    58  57  97 E6        29.94F
WARSAW         NOT AVBL
CHILLICOTHE      N/A     57  56  96 S3        29.93F
KIRKSVILLE     LGT RAIN  56  55  97 S8        29.93F

$$

MOZ041-047>049-056>058-063>065-088>090-097-230400-
...EASTERN AND SOUTHERN MISSOURI...

CITY           SKY/WX    TMP DP  RH WIND       PRES   REMARKS
ST. LOUIS INTL CLOUDY    72  48  42 S7        29.95R
SPIRIT OF STL  PTCLDY    65  57  75 CALM      29.93S
COLUMBIA       CLOUDY    58  54  86 NE8       29.95F
JEFFERSON CITY CLOUDY    63  53  70 NE7       29.94F
ROLLA          CLOUDY    62  54  74 SE6       29.93F
OSAGE BEACH    CLOUDY    65  57  75 SE3       29.93F
SPRINGFIELD    CLOUDY    66  51  58 S7        29.93R
BRANSON        PTCLDY    63  50  63 SE7       29.95S
JOPLIN         CLOUDY    65  57  75 S5        29.92S
WEST PLAINS    CLOUDY    63  52  67 CALM      29.96F

$$

IAZ060-094-KSZ022-034>040-054-083-096-NEZ052-066-093-230400-
...KANSAS...SOUTHEAST NEBRASKA AND IOWA...

CITY           SKY/WX    TMP DP  RH WIND       PRES   REMARKS
TOPEKA         MOCLDY    59  59 100 CALM      29.93S
MANHATTAN      LGT RAIN  59  57  93 SW9       29.92F
EMPORIA        CLOUDY    60  59  96 N3        29.93R
CHANUTE        CLOUDY    64  57  78 SW3       29.91F
WICHITA        PTCLDY    57  57 100 CALM      29.93R
OMAHA          CLOUDY    60  52  74 SE3       29.88S
LINCOLN        CLOUDY    56  54  93 W3        29.92R
FALLS CITY     PTCLDY    59  54  83 SW10      29.88F
LAMONI         PTCLDY    56  52  86 SW9       29.89S
DES MOINES     CLOUDY    59  51  75 SW6       29.85F

$$





USA.gov is the U.S. government's official web portal to all federal, state and local government web resources and services.